Regional Weather Roundup
Issued by NWS Wilmington, NC

Home | Current Version | Previous Version | Text Only | Print | Product List | Glossary On
Versions: 1 2 3 4 5 6 7 8 9 10 11 12 13 14 15 16 17 18 19 20 21 22 23 24 25 26 27 28 29 30 31 32 33 34 35 36 37 38 39 40 41 42 43 44 45 46 47 48 49 50
000
ASUS42 KILM 040313
RWRILM
RWRILM
REGIONAL HOURLY WEATHER ROUNDUP
NATIONAL WEATHER SERVICE WILMINGTON NC
1100 PM EDT SUN MAY 03 2015

NOTE: "FAIR" INDICATES FEW OR NO CLOUDS BELOW 12,000 FEET WITH NO
SIGNIFICANT WEATHER AND/OR OBSTRUCTIONS TO VISIBILITY.

...............WFO WILMINGTON COUNTY WARNING AREA...............

......COASTAL NC AND SC COUNTIES......

CITY           SKY/WX    TMP DP  RH WIND       PRES   REMARKS
WILMINGTON     CLEAR     60  52  74 CALM      30.24R
N MYRTLE BEACH CLEAR     67  60  78 S6        30.24R
MYRTLE BEACH   CLEAR     70  59  68 S9        30.26R

......INLAND NC AND SC COUNTIES.......

CITY           SKY/WX    TMP DP  RH WIND       PRES   REMARKS
LUMBERTON      CLEAR     63  52  67 S5        30.23R
ELIZABETHTOWN  CLEAR     62  50  63 S3        30.24R
WHITEVILLE     CLEAR     61  53  75 CALM      30.24R
FLORENCE       CLEAR     65  57  75 S9        30.23R
DARLINGTON     CLEAR     66  52  59 S8        30.23R

....................REST OF NORTH CAROLINA......................

.........EASTERN NC.........

CITY           SKY/WX    TMP DP  RH WIND       PRES   REMARKS
CAPE HATTERAS  CLEAR     60  53  77 W7        30.24R
JACKSONVILLE   CLEAR     55  46  71 CALM      30.25R
MOREHEAD CITY  MOCLDY    64  59  83 SW6       30.25R
KENANSVILLE    FAIR      56  48  75 CALM      30.25R
NEW BERN       CLEAR     59  50  72 CALM      30.25R
ELIZABETH CITY PTCLDY    65  51  60 S9        30.21R

.........CENTRAL NC.........

CITY           SKY/WX    TMP DP  RH WIND       PRES   REMARKS
RALEIGH DURHAM PTCLDY    60  49  66 CALM      30.22R
ROCKY MOUNT    CLEAR     63  48  58 S8        30.22R
ROANOKE RAPIDS NOT AVBL
FAYETTEVILLE   CLEAR     64  48  56 S7        30.22R
HOFFMAN        CLEAR     64  52  65 S7        30.25R

.........WESTERN NC.........

CITY           SKY/WX    TMP DP  RH WIND       PRES   REMARKS
CHARLOTTE      CLEAR     67  47  48 S6        30.20R
GREENSBORO     MOCLDY    64  47  53 S3        30.20R
HICKORY        NOT AVBL
BOONE          NOT AVBL
ASHEVILLE      NOT AVBL

.....................REST OF SOUTH CAROLINA.....................

.........EASTERN SC.........

CITY           SKY/WX    TMP DP  RH WIND       PRES   REMARKS
CHARLESTON     CLEAR     64  58  80 SE6       30.24R
BEAUFORT MCAS  CLEAR     65  57  75 CALM      30.22R
HILTON HEAD    CLEAR     64  61  88 S5        30.23S

.........CENTRAL SC.........

CITY           SKY/WX    TMP DP  RH WIND       PRES   REMARKS
COLUMBIA       PTCLDY    66  54  65 SW5       30.19R
ORANGEBURG     CLEAR     65  53  65 S5        30.22R
SUMTER SHAW    CLEAR     66  53  63 S5        30.20R

.........WESTERN SC.........

CITY           SKY/WX    TMP DP  RH WIND       PRES   REMARKS
GREENVILLE     NOT AVBL
ROCK HILL      CLEAR     59  51  75 S3        30.20R
ANDERSON       CLEAR     61  53  75 CALM      30.19R
CLEMSON        NOT AVBL
GREENWOOD      CLEAR     61  54  77 CALM      30.21R


...................COASTAL AND OFFSHORE REPORTS..................

................LOCAL PIERS AND NC RESERVE................


STATION/POSITION TIME  SKY/WX   TEMP    WIND        PRES    VSBY
                                AIR SEA DIR/SP/G
                 (UTC)          (F)     (DEG/KT/KT) (MB)    (MI)
JOHNY MRCER PIER 0200                   180/  8/  9 1023.2R
NC RESRV MASNBRO NOT AVBL
OCEAN CREST PIER 0302            68 70  160/  5/  6 1023.4R
SPRINGMAID  PIER 0200            68 67  130/  7/  8 1023.7R


................COASTAL AND OFFSHORE BUOYS................


STATION/POSITION TIME  SKY/WX   TEMP    WIND        PRES    VSBY
                                AIR SEA DIR/SP/G
                 (UTC)          (F)     (DEG/KT/KT) (MB)    (MI)
DIMNDSHOAL 41025 0250            64 60  260/  6/  8 1023.8R
WVE H/P(F/S)=  5/ 9 SWL H/P/D(F/S/D)=  5/ 90/ 9

CAPE LOOKOUT     0300            67     210/  6/  7 1024.1R
ONSLOW BAY 41036 NOT AVBL
5 WRITEBCH 41038 0208            69 67  190/  6/  8 1023.8R
MASONBORO  41110 0219               68                N/A
WVE H/P(F/S)=  2/12 WND WVE H/P(F/S)=  2/ 5 SWL H/P/D(F/S/D)=  2/100/12

WILM HARBR 41108 0211               66                N/A
WVE H/P(F/S)=  2/13 WND WVE H/P(F/S)=  2/ 6 SWL H/P/D(F/S/D)=  2/130/13

27WRITEBCH 41037 0200            68 72  190/ 10/ 10   N/A
FRYING PAN 41013 0250            73 73  170/ 10/ 12 1025.0R
WVE H/P(F/S)=  4/13 WND WVE H/P(F/S)=  2/ 3 SWL H/P/D(F/S/D)=  3/110/13

SUNST NRSH 41024 0208            69     180/  8/ 10 1023.7R
CAPRS NRSH 41029 NOT AVBL
EDISTO     41004 0250            74 74  130/  8/ 10 1023.6R
WVE H/P(F/S)=  2/10 SWL H/P/D(F/S/D)=  2/10



..........OFFSHORE BUOYS BEYOND 100 NM OFFSHORE...........
.....IN A TRIANGLE---HAT TO BERMUDA TO BAHAMAS TO HAT.....


STATION/POSITION TIME  SKY/WX   TEMP    WIND        PRES    VSBY
                                AIR SEA DIR/SP/G
                 (UTC)          (F)     (DEG/KT/KT) (MB)    (MI)
150E HAT   41001 NOT AVBL
W BERMUDA  41048 0250            67 70   20/ 12/ 14 1022.7R
WVE H/P(F/S)=  8/10 WND WVE H/P(F/S)=  3/ 5 SWL H/P/D(F/S/D)=  8/ 10/10

ATLANTIC S 41049 0250            74 77  360/  6/  8 1020.5R
WVE H/P(F/S)=  7/ 8 WND WVE H/P(F/S)=  2/ 4 SWL H/P/D(F/S/D)=  7/290/ 8

E BAHAMAS  41046 0250            78 80   70/ 16/ 19 1018.3R
WVE H/P(F/S)=  7/ 9 WND WVE H/P(F/S)=  5/ 6 SWL H/P/D(F/S/D)=  5/330/ 9

NE BAHAMAS 41047 0250            72 75   60/ 14/ 17 1020.4R
WVE H/P(F/S)=  8/10 WND WVE H/P(F/S)=  3/ 7 SWL H/P/D(F/S/D)=  7/360/10

120E CANVRL41010 0220            73 78   60/ 12/ 16 1022.7R

END



USA.gov is the U.S. government's official web portal to all federal, state and local government web resources and services.